Погода Лынтупы

Погода Лынтупы : погода сейчас, прогноз погоды и архив. Всё, что Вы хотите узнать о погоде Лынтупы!

Хотите узнать прогноз погоды Лынтупы? Тогда Вам сюда: Погода Лынтупы

Поиск расширенной информации на нашем сайте:

Другие новости

Новости СМИ2

Главная страница сайта

Новости сайта

03.07.2017

Напоминаем, что на нашем специализированном сайте Метеоцентр.Азия вы можете получить высокодетализированные автоматические прогнозы погоды по пунктам России, СНГ и мира в авиационном формате (включающие направление и скорость ветра, видимость, явления погоды, количество и форму облачности, нижнюю и верхнюю границу облачности).

Рекомендуем: Аренда опалубки колонн стойки для опалубки.

Погода Лынтупы - сегодня

Время (UTC), дата Ветер
(°,м/с) 
Видим.   Явления Облачность Т
(°С)
Тd
(°С)
f(%) Тe
(°С)
Pmin
(гПа)
dP
(гПа)
Po
(мм)
O2
(г/м3)
Тmin Tmax R s Состояние
почвы
00 12.12.17 130 (ЮВ) 9000 м  дымка  10/10 150 м 
[St]
+0.4 -0.7 92 1001.5  -0.5  732  294           
03 12.12.17 130 (ЮВ) 10 км    10/10 180 м 
[St]
+0.8 -0.3 92 -1  1000.2  -1.3  731  294         
06 12.12.17 160 (Ю) 10 км  в посл. час дождь  10/10 180 м 
[St]
+0.9 -0.2 92 -1  999.7  -0.4  730  293  -0.7    0.0  равномерный
мокрый или
старый снег
100% 
09 12.12.17 170 (Ю) 10 км    10/10 180 м 
[St]
+1.5 +0.7 94 +1  998.4  -1.3  729  292           
12 12.12.17 170 (Ю) 10 км    10/10 240 м 
[St]
+2.5 +1.2 91 997.5  -0.7  729  291           
15 12.12.17 190 (Ю) 10 км    9/9 500 м 
[Sc]
+3.6 +2.3 91 +2  998.7  1.2  730  290           
18 12.12.17 190 (Ю) 15000 м    ясно 
+5.5 +4.1 91 +4  999.6  1.1  731  288    +5.5     
21 12.12.17 230 (ЮЗ) 5-10{10}  15000 м    ясно 
+5.9 +4 88 +4  1001.2  1.6  732  288           
00 13.12.17 230 (ЮЗ) 6-12{11}  15000 м    9/9 1000 м 
[Sc]
+3.9 -0.1 75 +1  1003.7  2.2  733  291           
03 13.12.17 220 (ЮЗ) 6-12{13}  15000 м    9/9 960 м 
[Sc]
+3.1 -1.7 71 1005.6  1.8  735  293         
06 13.12.17 230 (ЮЗ) 6-12{12}  15000 м    8/8 840 м 
[Sc]
+2.5 -3.1 66 1008.2  2.5  737  294  +2.1      мокрый или
старый снег
50-90% 
09 13.12.17 240 (ЮЗ) 4{12}  15000 м  в посл. час крупа{снег}  8/8 750 м 
[Sc]
+1.6 -2.5 74 -1  1011  2.6  739  296           
12 13.12.17 240 (ЮЗ) 15000 м  {ливн. осадки, снег}  9/9 540 м 
[Sc]
+1.6 -2.5 74 -1  1011.9  0.9  739  296           
18 13.12.17 190 (Ю) 15000 м    3/3 600 м 
[Sc]
-0.3 -2.7 84 -1  1012.4  -0.2  740  299    +2.6  0.0   
21 13.12.17 190 (Ю) 15000 м    ясно 
-2.1 -3.3 91 -3  1011.5  -1.1  739  300           
00 14.12.17 170 (Ю) 15000 м    ясно 
-2.8 -3.8 93 -4  1009.9  -1.6  737  301           
03 14.12.17 170 (Ю) 15000 м    ясно 
-3.1 -4.5 90 -4  1007.3  -2.5  736  300         
06 14.12.17 140 (ЮВ) 15000 м    9/9 960 м 
[Sc]
-1.9 -4.7 81 -3  1005.1  -2.1  734  298  -3.8      мокрый или
старый снег
10-40% 
09 14.12.17 150 (ЮВ) 15000 м    10/10 400 м 
[St]
-0.8 -4.3 77 -3  1002.2  -2.6  732  296           
12 14.12.17 170 (Ю) 3{10}  15000 м    10/10 330 м 
[St]
-0.1 -2.4 84 -2  999.2  -3  730  294           
18 14.12.17 180 (Ю) 10 км  {снег}  10/10 360 м 
[St]
+0.5 -0.6 92 -1  996  -1.2  728  293    +0.6  0.3   
21 14.12.17 180 (Ю) 8000 м  слаб. снег  10/10 270 м 
[Frnb|Ns]
+0.6 -0.2 94 -2  994.8  -1.2  727  292           
00 15.12.17 180 (Ю) 7000 м  слаб. снег  10/10 240 м 
[Frnb|Ns]
+1.1 +0.3 94 -1  994.3  -0.4  726  291           
03 15.12.17 210 (ЮЗ) 6000 м  дымка{снег}  10/10 210 м 
[St]
+1.1 +0.6 96 -1  996.3  728  292      0.4   
06 15.12.17 160 (Ю) 8000 м  дымка{снег}  10/10 360 м 
[St]
+0.7 -0.7 90 -1  998.6  2.1  729  293  +0.2    0.4  равномерный
мокрый или
старый снег
100% 
Время (UTC), дата Ветер
(°,м/с) 
Видим.   Явления Облачность Т
(°С)
Тd
(°С)
f(%) Тe
(°С)
Pmin
(гПа)
dP
(гПа)
Po
(мм)
O2
(г/м3)
Тmin Tmax R s Состояние
почвы

Для получения пояснительной информации подведите курсор к названию столбца.

ПОГОДА Лынтупы - архив

Всё, что Вы хотите узнать о погоде Лынтупы - удобно и подробно!

Выберите нужную дату (начиная с 1 января 2015* года) и нажмите кнопку "Найти".
Будут отображены архивные сводки погоды по пункту Лынтупы, начиная с указанной даты.


Отображать данные в формате CSV (для использования в таблицах Excel)


Внимание! Наш архив погоды предназначен исключительно для личного некоммерческого использования в познавательных целях. Если Вам необходимы официальные справки о состоянии погоды (для производственных, юридических, коммерческих и т.п. целей), обращайтесь в органы Росгидромета.

*Примечание: данная дата относится к архиву по метеостанциям СССР (Россия, СНГ, Балтия).
Архив по метеостанциям Зарубежной Европы и Азии (кроме Китая) хранится 10 дней, по другим регионам земного шара (Китай, Африка, Америка, Австралия, Океания) - 1 день.

Лынтупы - район местоположения метеостанции


Название, широта, долгота, высота метеостанции:
Лынтупы 55.1°ш. 26.3°д. 212 м над ур. моря [Беларусь]

Дополнительная информация

В oтличие oт бoльшинства пoгoдных сайтoв мы публикуем пoдрoбную метеoинфoрмацию в детальнoм прoфессиoнальнoм фoрмате.

Характеристики температуры и влажнoсти вoздуха измеряются на высoте 2 м в тени вдали oт зданий и деревьев.
Скoрoсть ветра измеряется на высoте 10 м (на урoвне рoста челoвека скoрoсть ветра ниже в 1.5-2 раза). Если метеoстанция нахoдится в гoрoде или в лесу, тo скoрoсть ветра занижена на 2-4 м/с пo сравнению с oткрытым местoм. Скoрoсть ветра над акватoриями крупных рек и oзёр, а также на вершинах хoлмoв на 2-5 м/с выше, чем в oбычных услoвиях.
Атмoсфернoе давление в разных тoчках местнoсти мoжет значительнo oтличаться oт давления на метеoстанции, в зависимoсти oт услoвий рельефа (при пoдъёме на 10 м давление пoнижается примернo на 1 мм рт.ст.).